This demonstration page uses our WeatherBlox Daily Observations layout. Learn more.

Left ArrowRight Arrow

Hourly Observations for March 29, 2020

Temp ( °F °C ) Dew Point ( °F °C ) Humidity (%) Winds ( mph kmh ) Pressure ( in mb ) Visibility ( mi km ) Precip ( " mm )
12:03 am 00:03 Cloudy with Thunderstorms 68 20 64 17.8 87 87 W 10 17 29.81 1009 3 4.82802 0.03 0.762
12:12 am 00:12 Cloudy with Thunderstorms 68 20 64 17.8 87 87 W 16 26 29.82 1010 2.5 4.02335 0.08 2.032
12:17 am 00:17 Cloudy with Heavy Thunderstorms 67 19.4 64 17.8 91 91 W 18 30 29.82 1010 1.5 2.41401 0.16 4.064
12:25 am 00:25 Cloudy with Heavy Thunderstorms 67 19.4 63 17.2 87 87 WSW 16 26 29.81 1009 1.75 2.816345 0.23 5.842
12:34 am 00:34 Cloudy with Thunderstorms 66 18.9 63 17.2 90 90 VRB 3 6 29.77 1008 2.5 4.02335 0.27 6.858
12:39 am 00:39 Cloudy with Rain 66 18.9 64 17.8 93 93 SW 5 7 29.76 1008 3 4.82802 0.28 7.112
12:53 am 00:53 Cloudy with Light Rain 66 18.9 63 17.2 90 90 VRB 3 6 29.73 1007 10 16.0934 0.28 7.112
1:53 am 01:53 Partly Cloudy 66 18.9 63 17.2 90 90 VRB 5 7 29.71 1006 10 16.0934 0.001 0.001
2:53 am 02:53 Cloudy 65 18.3 62 16.7 90 90 VRB 5 7 29.67 1005 10 16.0934 N/A
3:53 am 03:53 Clear 66 18.9 61 16.1 84 84 S 8 13 29.65 1004 10 16.0934 N/A
4:53 am 04:53 Cloudy 67 19.4 60 15.6 79 79 SSW 10 17 29.62 1003 10 16.0934 N/A
5:53 am 05:53 Cloudy 67 19.4 59 15 76 76 SSW 10 17 29.64 1004 10 16.0934 N/A
6:53 am 06:53 Mostly Clear 66 18.9 59 15 78 78 SSW 13 20 29.65 1004 10 16.0934 N/A
7:53 am 07:53 Mostly Sunny 66 18.9 56 13.3 70 70 SSW 9 15 29.68 1005 10 16.0934 N/A
8:53 am 08:53 Sunny 66 18.9 52 11.1 61 61 SW 10 17 29.68 1005 10 16.0934 N/A
9:53 am 09:53 Partly Cloudy 66 18.9 44 6.7 45 45 SW 13 20 29.7 1006 10 16.0934 N/A
10:53 am 10:53 Sunny 66 18.9 41 5 40 40 SW 18 30 29.73 1007 10 16.0934 N/A
11:53 am 11:53 Partly Cloudy 64 17.8 42 5.6 45 45 WSW 22 35 29.77 1008 10 16.0934 N/A
12:53 pm 12:53 Mostly Cloudy 64 17.8 43 6.1 46 46 WSW 25 41 29.8 1009 10 16.0934 N/A
1:53 pm 13:53 Mostly Sunny 64 17.8 42 5.6 45 45 WSW 18 30 29.84 1010 10 16.0934 N/A
2:53 pm 14:53 Sunny 65 18.3 43 6.1 45 45 W 21 33 29.84 1011 10 16.0934 N/A
3:53 pm 15:53 Sunny 65 18.3 42 5.6 43 43 WSW 20 31 29.85 1011 10 16.0934 N/A
4:53 pm 16:53 Sunny 66 18.9 42 5.6 42 42 WSW 18 30 29.87 1012 10 16.0934 N/A
5:53 pm 17:53 Sunny 66 18.9 40 4.4 39 39 WSW 18 30 29.89 1012 10 16.0934 N/A
6:53 pm 18:53 Sunny 65 18.3 40 4.4 40 40 WSW 12 19 29.9 1013 10 16.0934 N/A
7:53 pm 19:53 Mostly Sunny 62 16.7 41 5 46 46 W 15 24 29.93 1014 10 16.0934 N/A
8:53 pm 20:53 Mostly Clear 60 15.6 39 3.9 46 46 WSW 10 17 29.96 1015 10 16.0934 N/A
9:53 pm 21:53 Clear 60 15.6 36 2.2 41 41 WSW 13 20 29.98 1015 10 16.0934 N/A
10:53 pm 22:53 Clear 59 15 35 1.7 41 41 WSW 14 22 29.99 1016 10 16.0934 N/A
11:53 pm 23:53 Clear 58 14.4 33 0.6 39 39 W 12 19 30.01 1016 10 16.0934 N/A

Powered by AerisWeather